GFSSW_sfc_30mbdewp_078.txt.gz
Dewpoint
60 60 60 59 60 60 60 59 58 58 58 58 58 58 59 58 53 43 28 33 41 46 44 43 39 38 36 34 34 27 16 15 18 20 18 22 22 24 30 31 31 33 34 33 38
59 60 60 60 60 60 60 59 58 58 58 58 57 58 58 58 44 34 33 46 45 46 37 35 27 31 31 32 34 30 21 14 15 16 21 23 25 25 23 23 23 26 31 33 40
59 59 59 59 59 60 60 59 58 58 58 57 57 57 58 56 32 27 43 49 49 45 44 40 31 26 27 27 30 29 25 27 26 25 26 26 26 26 23 20 21 20 21 30 37
59 59 59 60 60 59 59 59 59 58 58 57 56 57 56 44 22 32 55 51 52 44 35 26 23 22 21 21 27 26 27 28 28 27 28 25 24 23 24 21 23 24 25 30 32
59 59 60 60 60 60 59 59 58 58 57 56 56 56 38 27 26 42 48 50 39 33 26 24 23 22 19 21 22 22 21 23 25 26 25 25 23 23 22 24 23 23 23 25 29
60 60 60 60 59 59 59 57 57 57 56 55 56 56 36 24 30 44 35 32 32 31 26 26 24 25 23 22 20 21 23 23 23 22 21 21 20 22 20 23 21 21 21 23 24
59 59 59 59 59 58 57 57 57 57 55 55 57 50 31 25 31 41 32 28 29 27 26 28 27 25 23 20 24 24 19 19 19 21 20 22 14 18 22 22 20 21 22 24 25
59 59 59 58 57 57 56 56 56 55 55 56 55 45 25 29 32 33 32 28 29 29 29 29 28 25 24 25 22 20 18 14 16 17 22 21 7 16 22 19 19 21 23 25 27
59 59 58 57 57 56 55 55 55 55 55 54 43 30 24 30 29 29 29 27 28 29 29 28 27 24 25 21 17 18 14 14 14 17 16 19 13 18 22 19 20 22 23 25 27
58 58 57 57 56 54 54 54 51 51 52 52 43 28 27 26 27 29 29 28 27 27 26 27 25 22 22 19 9 13 14 15 13 13 16 16 17 18 20 19 20 22 23 25 26
58 57 56 55 53 53 48 41 35 33 41 27 28 26 23 27 28 27 28 27 25 24 21 24 21 16 17 21 19 19 17 15 14 15 18 17 17 19 20 20 21 22 23 24 25
57 56 54 53 53 53 45 33 28 30 28 33 33 30 29 26 23 25 27 25 24 22 22 21 18 19 22 21 20 18 15 14 14 17 18 17 18 18 19 20 22 23 23 24 24
55 54 54 53 52 47 39 34 40 36 27 25 32 32 30 26 23 22 25 23 21 20 20 17 15 22 20 19 16 16 14 13 14 18 19 19 15 17 20 22 23 25 24 24 24
55 54 53 52 40 40 36 38 41 30 17 17 25 28 26 26 23 25 26 23 21 19 20 19 20 18 17 16 16 14 16 17 17 16 10 19 10 15 18 20 22 23 22 23 25
54 54 53 45 38 39 38 42 34 23 6 16 24 27 26 24 23 24 25 22 19 19 18 13 18 17 16 15 17 16 20 18 18 17 18 17 14 14 17 18 20 23 22 24 26
53 54 53 48 43 40 40 35 29 15 8 21 23 23 24 24 24 24 23 24 23 20 20 18 21 19 18 20 19 20 19 19 22 20 14 15 15 12 16 18 19 22 22 24 27
53 54 50 42 33 41 37 31 19 11 16 20 21 23 22 22 22 22 21 20 19 15 15 19 20 21 21 18 21 20 14 6 1 10 9 18 15 13 15 16 19 21 22 24 27
52 53 51 45 43 39 33 25 15 13 17 23 23 23 20 21 21 22 21 18 20 19 19 16 9 20 21 18 17 19 14 8 1 3 8 15 11 10 20 22 20 23 24 25 27
52 47 43 40 42 36 30 23 16 18 21 23 22 20 19 21 18 22 21 21 21 20 15 17 15 21 21 21 19 17 16 15 14 16 13 13 14 15 21 22 22 23 25 25 26
40 38 41 47 41 34 29 25 22 20 25 24 20 21 18 21 21 21 20 22 21 23 21 18 14 20 21 20 20 20 19 15 15 8 7 11 12 12 19 21 22 22 23 25 28
40 33 43 44 38 34 28 25 25 26 25 23 22 20 20 21 21 21 20 20 23 22 22 19 16 16 20 18 17 18 17 16 16 15 9 9 10 16 18 22 22 23 25 28 30
41 30 46 41 34 33 30 28 28 25 25 25 24 21 19 20 21 20 19 18 24 22 21 20 17 14 15 19 19 18 17 16 14 13 16 14 13 18 19 23 23 23 28 30 31
40 43 46 38 29 30 30 29 28 24 22 22 21 23 23 19 16 20 18 25 24 21 19 21 18 13 11 17 18 18 18 18 17 17 15 13 14 19 23 24 24 25 27 30 31
41 37 42 41 37 30 29 27 26 28 25 24 22 25 23 21 22 18 21 26 27 25 26 22 18 13 10 10 17 16 19 18 18 16 16 15 15 18 21 23 23 27 29 31 29
39 35 41 38 37 31 29 27 26 25 27 27 25 23 22 20 21 20 23 26 27 29 25 22 18 19 19 16 20 20 19 20 17 19 18 18 17 18 20 23 26 30 29 28 28
39 36 39 38 38 35 31 28 26 27 27 26 25 26 25 21 20 18 23 26 23 27 24 27 21 23 22 25 25 24 25 25 24 23 22 22 22 26 27 29 30 27 27 27 29
41 45 38 37 36 36 34 32 28 28 29 28 27 26 26 25 25 24 26 27 26 25 25 25 25 24 21 27 25 23 25 25 27 27 26 24 25 28 28 27 26 27 27 27 31

GFSSW_sfc_30mbdewp_084.txt.gz
Dewpoint
60 60 61 60 60 60 60 60 60 59 59 59 60 59 59 59 57 48 31 33 36 48 43 43 37 38 37 38 36 30 22 21 23 26 21 24 21 24 27 25 27 28 29 33 40
60 60 60 61 61 60 60 60 60 59 58 59 60 59 59 58 45 33 33 46 52 49 38 32 26 30 28 35 35 26 18 16 19 18 16 22 23 23 23 19 20 22 25 31 36
60 60 60 60 60 60 60 60 59 59 58 59 59 59 58 56 36 27 41 54 53 45 40 32 28 27 25 30 31 30 17 23 21 19 24 24 25 27 22 19 23 23 24 25 28
60 60 60 60 60 60 60 60 59 58 58 59 59 58 57 47 23 31 51 56 52 41 31 26 25 23 23 21 28 23 25 27 28 29 28 24 26 23 24 22 25 25 25 25 25
60 60 60 60 60 60 60 60 59 58 57 58 58 57 45 31 27 46 58 56 42 32 26 25 24 24 20 21 23 23 22 23 25 26 26 26 23 23 23 24 22 24 27 28 28
60 61 60 60 60 60 60 59 58 57 57 58 57 57 40 26 30 47 46 37 31 27 27 26 25 26 24 23 22 21 22 21 23 22 23 21 22 24 21 22 23 26 28 29 30
60 60 60 60 60 59 58 57 57 57 57 56 57 53 34 28 32 42 35 29 32 28 27 28 27 25 25 22 24 24 19 18 21 21 21 23 18 20 23 21 23 24 27 29 31
60 60 60 60 59 58 57 57 56 56 55 56 56 48 28 30 34 35 31 29 30 30 30 30 29 28 25 26 22 19 19 15 19 18 22 22 9 18 22 20 23 24 25 27 29
60 60 60 59 58 57 56 56 55 55 56 56 47 37 26 35 29 31 30 28 29 29 29 29 28 26 26 19 15 18 9 15 15 17 17 19 13 19 22 21 22 23 24 25 27
59 59 59 58 57 56 56 54 53 53 52 51 44 31 29 27 29 30 30 29 28 28 27 28 26 22 21 17 6 9 12 15 14 16 17 16 16 18 22 22 22 22 23 24 27
59 59 58 58 56 56 52 46 40 36 44 30 30 28 25 28 29 28 29 27 27 26 24 26 20 15 13 17 18 17 17 16 16 17 20 19 18 20 21 22 22 21 22 25 28
59 59 57 57 56 54 48 37 32 31 30 35 32 31 30 28 25 27 28 26 26 24 23 21 16 16 20 20 20 20 18 15 16 17 19 18 18 20 21 22 23 22 23 26 28
59 58 57 56 54 52 43 37 40 37 28 28 32 29 29 26 24 25 27 26 24 23 21 15 17 22 21 21 20 18 16 14 14 18 20 19 18 19 21 23 25 24 25 27 28
58 57 56 54 47 42 39 39 39 37 22 20 26 30 29 27 24 25 27 24 22 19 21 19 21 20 19 18 19 13 17 16 17 17 11 19 6 18 19 21 23 23 24 27 30
57 56 54 51 39 38 35 39 39 27 12 19 26 29 28 25 25 24 26 23 21 19 20 15 18 19 18 17 19 18 20 19 20 17 17 17 12 15 19 19 21 22 25 29 31
55 55 54 50 44 41 42 37 29 19 11 20 25 25 25 24 24 24 24 25 23 20 20 19 21 20 19 20 19 22 20 21 22 19 13 14 15 15 17 17 20 22 25 28 30
55 55 52 47 35 41 35 30 20 14 18 20 22 24 24 22 23 22 22 21 20 18 18 20 20 21 22 19 22 20 18 11 7 14 9 18 16 15 17 19 20 22 23 27 29
54 54 51 43 43 40 33 25 14 15 15 23 24 24 22 23 23 22 22 20 22 19 17 16 12 20 22 19 18 19 18 9 2 3 7 16 13 13 17 20 20 23 24 26 28
54 52 46 44 45 37 31 21 13 17 17 23 23 21 21 22 22 22 20 19 20 20 15 17 16 22 21 21 21 19 16 15 13 15 12 11 13 16 20 22 21 22 24 26 28
47 44 41 45 41 36 30 21 22 20 24 24 19 20 18 20 19 21 20 21 21 22 21 19 15 21 21 21 21 20 19 15 15 9 7 10 12 10 19 19 20 23 25 27 28
42 35 44 44 39 36 30 25 26 25 25 24 23 21 20 21 19 19 19 22 23 23 22 20 17 18 21 20 19 19 17 17 16 14 9 7 8 16 18 20 22 23 26 27 30
40 31 47 41 35 36 33 30 28 26 28 26 25 23 21 22 21 21 20 21 24 24 20 20 19 16 17 20 20 20 18 17 11 12 15 14 10 17 19 22 23 24 26 30 31
37 43 46 40 30 33 32 31 29 25 25 24 24 24 22 23 21 23 22 25 26 24 22 21 19 15 14 18 20 18 18 18 18 17 13 11 9 20 20 23 24 25 28 31 31
42 38 41 39 37 32 31 31 29 29 24 23 23 24 23 20 22 21 21 27 26 24 25 23 20 14 7 10 18 18 19 18 17 14 13 14 12 17 19 23 24 25 29 30 30
41 37 39 34 36 32 32 30 29 27 28 26 24 23 21 19 21 20 23 26 28 31 25 23 18 18 17 15 18 17 18 19 17 17 15 13 14 16 19 22 24 26 27 30 28
39 38 40 37 36 31 32 29 29 29 27 26 25 24 23 20 19 19 22 24 22 28 25 26 20 21 20 24 21 19 20 20 19 18 18 18 18 21 22 22 23 25 30 29 28
44 43 39 38 35 30 30 29 28 28 29 28 26 25 25 24 25 24 26 26 26 25 24 25 24 22 16 26 25 22 23 23 22 22 21 20 22 26 26 26 24 26 29 27 30

GFSSW_sfc_30mbdewp_090.txt.gz
Dewpoint
61 61 61 61 62 61 60 60 60 60 60 59 58 59 58 58 54 48 39 44 42 45 46 39 39 36 34 34 34 31 25 23 25 24 23 24 21 19 20 20 19 19 21 34 39
62 61 61 61 61 61 61 60 60 60 59 59 58 58 57 56 48 38 39 45 49 46 39 37 32 27 29 29 30 28 24 22 15 11 13 15 19 20 20 18 16 19 26 29 31
61 61 61 61 61 61 61 60 60 60 59 59 59 57 56 54 42 30 50 48 51 48 40 32 25 24 23 25 28 24 22 20 17 25 23 21 21 21 20 18 25 24 24 25 26
60 61 61 61 61 61 61 60 60 60 59 58 58 56 55 46 29 40 55 53 51 45 37 29 26 24 22 22 22 21 20 18 20 26 24 20 22 22 20 22 23 23 26 27 27
61 61 61 61 61 61 60 60 60 59 58 57 57 56 44 39 33 48 53 53 46 40 35 27 25 25 23 19 19 20 20 19 19 20 22 22 21 21 22 23 22 25 27 29 30
61 61 61 61 61 61 60 60 60 58 57 57 56 55 45 33 33 48 46 45 37 34 29 27 27 26 25 22 21 21 21 19 17 17 18 21 21 22 22 22 23 25 28 30 31
60 60 61 61 60 60 60 59 58 57 56 56 55 49 37 34 31 42 43 41 36 30 27 27 28 27 27 23 23 22 18 18 16 18 21 22 21 22 22 21 22 25 28 30 32
58 59 60 60 60 60 59 58 57 56 55 54 54 46 35 31 33 37 37 30 30 29 29 29 28 27 26 26 22 18 17 15 18 19 22 22 15 21 20 21 21 23 27 30 32
57 58 60 60 60 59 58 57 56 56 55 54 48 41 32 31 29 33 33 28 28 29 29 28 28 27 27 23 19 17 13 13 19 17 19 20 16 21 20 20 21 22 25 28 31
57 56 58 59 59 59 57 55 55 53 50 46 40 34 32 29 29 29 32 29 28 28 27 27 28 26 25 21 14 12 13 10 11 17 16 15 15 19 21 20 20 21 25 28 30
57 56 58 59 59 57 54 45 41 40 40 29 29 26 27 29 30 29 30 29 28 28 26 28 26 25 24 19 15 16 14 11 12 19 17 16 16 17 21 21 21 22 26 29 30
56 55 58 59 58 57 52 41 26 33 31 35 29 32 32 31 26 28 30 27 27 26 27 26 25 26 23 18 16 16 14 13 14 18 17 16 16 19 21 22 22 22 26 29 30
56 56 58 58 57 55 46 37 40 35 27 29 31 25 29 30 26 27 28 27 26 26 26 26 25 20 18 16 17 16 15 14 14 16 17 17 18 18 21 23 23 22 27 29 30
56 56 58 57 52 43 40 39 39 34 23 23 28 30 25 30 27 28 28 27 26 26 26 26 26 19 17 16 17 15 18 16 15 15 14 19 12 20 21 21 22 24 26 28 30
57 57 57 53 39 38 30 38 39 35 20 22 28 30 27 28 27 26 27 27 24 23 21 21 20 20 19 17 18 16 21 18 19 18 17 16 15 15 21 21 23 23 26 28 29
58 57 56 52 45 37 35 37 35 27 18 20 27 26 26 28 27 26 26 26 25 23 21 20 21 19 19 20 19 22 20 20 20 19 15 15 15 17 19 20 22 23 26 29 30
57 57 54 48 38 40 38 34 27 22 19 22 23 25 26 26 26 24 23 23 21 20 19 20 20 20 22 21 22 21 18 15 18 16 13 16 14 14 20 19 21 22 25 29 30
57 56 53 44 41 41 36 29 24 21 19 23 23 24 23 24 25 24 23 22 23 22 19 19 17 20 22 20 19 20 17 14 12 10 12 17 12 16 20 20 21 22 25 29 30
56 54 49 45 43 41 32 27 24 19 21 23 23 22 22 22 22 22 22 22 22 23 20 14 17 22 22 21 20 20 19 19 15 12 10 8 13 17 19 19 20 22 25 28 29
52 50 45 45 44 39 30 27 24 22 23 24 21 22 21 22 21 20 20 20 21 23 23 18 18 21 22 22 22 21 21 15 14 8 8 9 9 11 15 18 20 21 23 27 29
47 41 43 46 42 34 26 26 27 22 25 23 22 21 21 22 22 20 18 20 21 22 22 20 18 21 21 20 19 19 18 17 17 15 10 6 10 14 17 18 20 21 24 27 29
44 35 45 43 35 33 28 28 28 26 26 27 26 23 21 22 21 20 20 21 23 23 20 20 19 19 19 20 21 21 17 17 14 10 13 14 13 17 18 20 21 21 22 27 29
38 43 45 41 27 31 31 30 29 27 26 25 25 25 23 21 20 20 22 25 26 23 21 20 17 16 18 20 20 19 20 20 18 16 14 13 12 20 19 20 21 21 24 27 30
39 38 40 41 35 29 28 30 29 31 28 25 25 25 22 22 23 22 25 27 26 26 24 24 19 17 14 15 19 16 17 18 18 14 13 12 12 17 18 20 22 24 26 29 31
40 35 36 33 33 30 29 29 29 29 30 26 24 24 22 20 22 22 26 28 27 28 24 24 21 21 20 17 16 16 17 17 17 17 15 14 13 14 17 20 21 25 27 30 31
38 34 34 34 32 31 30 30 30 30 28 26 23 23 22 21 21 19 24 25 24 29 25 25 22 21 19 20 19 19 19 18 18 18 17 17 17 19 21 24 23 23 26 29 31
42 42 34 33 33 32 32 30 31 32 29 27 26 25 23 23 26 26 26 25 27 25 25 25 22 20 17 18 22 20 22 21 19 19 18 16 18 25 26 26 26 26 26 29 31

GFSSW_sfc_30mbdewp_093.txt.gz
Dewpoint
62 62 62 62 62 62 61 60 60 60 60 59 58 59 59 58 55 51 40 41 43 49 46 42 40 39 37 34 33 31 23 23 22 24 24 24 19 20 20 19 19 19 26 36 42
62 62 62 62 61 61 61 61 60 60 60 59 58 59 58 57 49 40 39 50 49 49 36 39 36 37 28 30 30 28 24 22 14 14 15 20 19 20 19 20 19 25 30 38 38
63 62 62 61 61 61 61 61 60 60 60 59 58 58 58 56 45 35 53 48 50 48 39 39 34 24 23 25 28 25 20 23 23 25 23 22 20 22 20 17 25 23 24 25 26
62 62 61 61 61 61 61 61 60 60 60 58 57 57 57 48 28 39 57 58 54 44 38 35 28 24 22 22 23 21 20 20 21 25 22 20 22 21 21 20 23 24 27 28 29
61 61 61 61 61 61 61 61 60 60 59 57 57 57 47 42 36 46 57 53 46 39 38 34 27 26 23 23 20 20 21 20 18 24 22 23 20 20 21 23 24 26 29 30 31
62 61 60 60 61 61 61 60 60 59 58 56 57 56 47 33 43 49 51 44 39 35 33 30 27 26 24 23 21 22 21 20 19 18 19 20 20 21 21 22 23 28 30 31 32
61 61 60 60 61 61 60 60 59 58 57 55 57 52 42 34 36 46 45 41 37 34 30 29 28 27 27 25 24 22 18 18 18 18 19 22 20 22 22 21 23 28 30 32 33
60 60 59 60 60 60 60 59 58 57 55 55 56 49 38 37 35 38 40 38 33 30 30 29 28 27 26 26 23 20 18 15 18 20 22 18 10 22 22 20 23 28 30 32 34
60 59 59 60 60 60 59 58 56 56 54 56 47 45 34 32 29 35 36 29 29 29 29 27 28 27 27 24 22 19 14 14 17 19 21 19 14 21 20 21 23 27 29 32 35
58 58 58 59 60 59 58 56 55 54 51 50 46 36 34 30 29 30 35 31 28 28 27 26 27 26 26 24 17 15 14 13 15 18 17 18 16 21 20 20 21 26 29 31 35
56 56 56 56 59 59 56 49 43 40 44 32 30 31 29 30 30 29 32 29 29 28 25 27 26 25 25 25 24 17 15 13 12 18 16 15 16 16 19 20 21 26 28 30 33
56 56 56 58 59 58 54 44 36 33 31 36 37 32 28 31 26 28 29 27 27 26 27 26 25 27 27 22 16 15 14 12 15 19 17 16 15 16 20 20 20 26 29 30 32
55 56 55 58 58 56 51 44 40 39 26 30 31 29 31 31 28 26 29 27 26 25 26 25 26 27 22 19 15 15 13 14 14 17 17 16 16 18 21 22 23 26 29 30 31
55 56 57 57 53 51 49 44 44 39 20 23 31 30 27 30 28 30 29 27 26 25 26 26 27 25 19 16 17 15 18 17 16 14 10 17 14 17 20 21 22 27 29 30 30
56 56 57 55 45 44 38 41 39 35 15 22 29 31 25 28 29 27 28 27 25 26 25 23 22 21 19 19 18 16 20 17 17 17 18 17 14 15 21 20 21 26 28 30 31
56 56 57 53 50 40 38 37 37 26 17 22 28 27 24 29 27 26 25 26 26 24 25 24 21 20 20 20 20 22 19 20 20 19 15 16 14 14 19 20 22 25 27 29 31
56 56 56 51 40 40 37 35 26 23 21 21 24 27 23 25 27 24 24 23 24 23 21 21 19 19 21 19 21 20 18 15 17 17 13 17 15 14 20 21 22 23 26 29 31
57 57 55 48 45 39 36 29 23 24 22 24 24 26 25 26 26 24 23 22 23 21 21 21 18 20 21 20 17 18 18 15 13 14 11 17 11 12 19 21 23 24 25 29 31
56 55 53 50 49 41 31 22 23 24 22 23 23 24 24 25 26 25 24 23 23 23 19 19 19 22 22 21 20 19 17 19 15 15 11 10 13 17 19 19 22 23 25 29 31
53 51 49 48 46 40 29 25 25 23 24 24 20 23 22 22 22 24 25 24 23 24 24 20 17 21 21 21 21 21 22 16 15 8 7 10 9 9 15 17 20 21 25 29 31
51 45 45 46 43 38 28 25 26 23 25 23 22 22 22 21 21 22 21 21 23 24 24 22 19 20 20 19 18 19 18 18 16 16 10 7 8 15 16 16 18 21 25 28 30
47 37 45 45 36 35 30 28 29 24 26 27 25 25 22 23 22 21 20 20 24 24 22 22 19 19 20 21 22 20 18 17 13 10 13 11 11 17 19 18 19 19 23 27 30
41 42 45 40 32 33 30 27 28 27 26 25 25 26 24 23 22 22 22 25 25 22 21 21 18 17 17 20 20 19 20 18 18 17 14 13 13 19 18 20 21 21 22 27 30
41 38 41 42 36 32 30 26 28 31 28 26 25 26 23 22 23 22 25 25 26 26 24 23 18 17 16 16 18 16 18 20 18 15 14 14 14 14 17 18 21 22 22 28 31
42 37 36 33 33 32 30 30 28 28 30 27 24 24 22 21 21 23 28 26 26 27 24 22 18 20 21 20 17 17 17 17 17 17 14 13 13 14 17 19 19 23 27 30 31
41 37 36 35 33 33 31 28 29 29 29 26 24 24 24 22 22 21 25 24 21 27 24 25 21 21 19 20 18 17 17 17 18 18 18 17 16 18 21 24 24 23 29 30 31
44 42 34 34 33 31 31 28 29 30 30 28 26 25 23 23 24 26 26 26 27 23 24 23 22 20 16 18 20 18 21 20 19 19 18 16 18 20 24 25 26 25 28 31 31

GFSSW_sfc_30mbdewp_099.txt.gz
Dewpoint
61 62 62 63 63 62 62 61 61 60 60 59 59 59 58 58 55 47 35 34 42 53 52 41 39 38 35 33 33 29 26 24 21 17 26 20 19 21 21 19 26 31 34 36 43
62 62 63 63 62 62 61 61 61 60 60 59 59 59 58 58 48 40 39 46 54 59 41 37 34 35 27 29 30 26 21 21 20 14 17 20 19 20 19 19 23 29 39 41 43
62 62 63 63 62 62 61 61 61 61 60 60 60 58 58 56 41 34 46 49 57 56 38 39 37 33 26 27 28 26 21 24 22 22 21 19 19 22 19 17 20 23 33 38 38
62 62 63 63 62 62 61 61 61 60 60 60 59 57 57 48 27 36 54 56 61 49 35 35 27 24 22 23 24 23 24 23 20 26 22 20 21 20 21 19 22 24 26 28 30
62 62 63 63 62 62 61 61 60 60 60 59 58 57 46 40 34 38 59 61 53 39 33 33 27 26 24 23 22 22 21 21 20 22 23 22 19 19 20 23 25 28 29 29 30
62 62 62 62 61 61 61 61 60 60 59 58 57 57 43 30 35 48 52 45 37 36 35 35 27 26 25 23 22 21 21 21 21 20 21 19 18 21 20 23 27 29 30 31 31
61 61 61 61 61 61 61 61 61 60 59 57 56 54 44 32 41 48 46 39 39 34 32 30 28 27 27 25 25 23 22 21 20 19 18 20 18 18 22 23 26 29 31 32 32
61 61 61 61 60 60 60 60 60 59 57 56 56 50 36 38 40 37 38 40 40 36 31 29 29 27 26 26 25 22 19 16 17 19 20 19 12 16 19 22 25 29 31 33 34
61 61 61 61 60 60 60 60 59 57 56 55 48 43 32 39 34 35 36 37 33 30 29 28 28 27 26 25 24 21 14 15 15 20 22 18 15 15 23 22 24 28 31 33 34
61 61 60 60 59 58 60 59 56 53 52 51 48 38 34 29 30 33 38 33 28 28 26 26 27 25 25 24 20 16 18 17 16 17 20 19 18 18 21 21 22 27 30 33 35
56 60 60 60 59 59 58 52 38 35 44 27 29 30 27 33 31 30 35 29 29 27 25 26 24 23 24 24 24 22 22 20 17 15 16 16 17 17 18 20 21 26 29 33 35
54 60 60 59 59 59 54 41 30 27 25 37 40 37 35 31 27 28 33 29 27 25 26 26 23 24 26 26 26 25 18 17 19 16 17 16 16 17 17 18 20 23 28 32 36
52 55 59 58 58 57 53 45 44 37 28 26 28 35 31 31 26 27 31 28 26 25 25 24 25 27 26 26 25 23 21 18 16 16 17 16 15 16 18 19 21 24 28 32 36
51 52 58 58 55 54 52 52 47 43 22 22 27 28 29 31 27 29 30 28 26 25 26 25 26 26 26 25 24 20 17 16 16 15 12 17 12 15 16 19 21 24 28 31 35
50 52 58 56 52 52 50 53 47 34 27 29 29 30 29 25 27 28 29 28 25 25 26 25 26 26 26 24 19 19 20 18 17 15 17 17 14 11 19 17 19 22 28 31 34
50 51 57 53 51 51 48 48 38 33 27 22 30 26 27 28 28 27 27 28 28 26 26 25 25 26 27 25 23 21 19 21 22 19 13 14 13 9 12 15 20 23 27 30 33
50 50 56 54 49 51 47 37 28 29 26 22 27 26 25 26 26 25 25 25 24 23 23 24 23 21 21 19 21 20 17 14 15 16 9 18 16 12 15 18 21 21 26 30 32
49 49 50 52 46 45 39 29 21 25 21 25 27 26 24 26 26 24 24 24 25 24 23 23 23 21 21 19 18 19 16 12 7 14 16 18 15 16 18 20 21 23 27 30 31
48 48 53 53 44 46 32 25 20 23 24 24 26 24 22 26 26 24 24 24 25 24 22 22 23 22 21 21 19 18 17 18 15 16 13 12 14 13 17 19 22 25 28 29 31
45 46 52 53 47 37 28 24 22 26 24 26 23 25 22 24 24 24 23 24 24 25 23 22 20 21 21 21 22 19 19 16 17 10 9 11 12 12 12 17 21 23 26 29 30
43 40 53 53 47 35 27 25 24 27 25 22 22 24 25 24 24 25 24 26 25 25 24 22 19 20 20 19 19 20 18 18 17 15 8 8 8 15 15 16 18 21 25 28 29
39 35 53 50 38 35 28 26 28 25 27 24 24 23 24 25 24 24 24 25 27 26 23 23 20 18 19 21 22 20 19 18 15 13 15 13 10 16 17 18 18 18 22 26 30
34 43 50 46 33 33 28 27 28 25 25 24 24 24 24 24 23 25 25 26 26 26 24 23 21 18 18 20 20 20 20 19 17 15 13 11 11 18 19 18 20 18 20 22 27
32 37 43 45 38 32 28 26 24 28 25 26 24 26 24 23 23 23 23 25 26 26 27 24 21 20 18 18 19 20 19 19 18 16 15 15 14 15 16 16 18 20 21 22 25
36 34 40 36 36 32 28 26 23 26 28 26 25 24 22 22 22 22 25 25 26 28 25 23 21 20 20 19 19 19 19 19 18 18 16 16 16 17 18 18 17 18 20 22 24
34 39 39 37 37 33 29 25 22 28 27 25 23 24 23 22 22 22 24 23 22 26 23 23 20 20 18 20 21 18 18 20 19 19 18 18 18 19 19 17 18 20 21 23 25
43 44 37 36 35 33 29 25 23 28 30 27 25 25 23 24 24 24 26 25 23 24 23 23 22 20 18 19 19 17 18 18 19 20 19 18 19 20 19 19 19 21 23 24 27